GSAT0220 (PRN E13)

Last updated on June 27, 2019, 3:44 a.m. UTC

1 43567U 18060D   19175.84238394 -.00000073  00000-0  00000-0 0  9995
2 43567  56.5692  50.8909 0002774 301.1483  58.8803  1.70475798  5714
UTC
Height (km)
Latitude
Longitude
Inclination
Orbital Period
UTC large
Height (km)
Speed (km/s)
/
Latitude / Longitude
Inclination (degrees)
Orbital Period (minutes)
Azimuth
Elevation
Range (km)
Doppler Factor
iOS Compass Heading
iOS Angle

Next 30 passes for location: Hong Kong

Rise time Rise Azimuth (degrees) Set time Set Azimuth (degrees) Duration Max altitude (degrees)

No matching passes for this satellites